Theta_e
306 309 311 308 307 307 307 307 308 308 308 307 309 306 306 303 302 301 299 298 297 297 295 294 293 292 291 291 291 291 291 291 291 291 291 291 291 291 292 293 293 294 295 295
307 310 307 306 306 307 307 308 309 308 308 307 307 307 305 304 302 300 299 298 297 297 296 294 293 291 290 290 291 291 291 291 290 290 289 290 290 290 291 292 293 294 294 295
308 308 305 305 307 308 308 308 309 309 308 308 309 310 307 304 301 299 298 297 296 295 295 294 292 291 290 291 291 290 290 290 290 289 289 289 289 290 291 292 292 293 295 295
305 305 307 308 307 306 307 307 308 308 309 311 308 312 309 306 304 301 299 297 296 294 294 292 291 290 290 290 290 290 290 289 289 289 288 289 289 290 290 290 291 292 294 296
308 306 306 306 306 306 308 307 308 309 309 310 311 312 310 306 307 304 300 297 296 294 293 292 290 289 289 289 289 289 289 289 288 288 288 288 289 289 289 290 291 292 293 295
305 304 306 307 307 306 307 308 309 310 310 313 311 311 311 311 310 305 300 297 295 293 292 291 290 289 289 289 288 289 289 289 288 288 288 289 289 288 289 289 290 292 292 294
306 306 305 306 308 307 308 310 312 313 315 313 310 311 311 308 304 304 299 297 294 292 291 291 290 289 288 288 288 288 288 288 288 288 288 288 288 287 287 288 289 290 291 293
307 308 308 307 308 308 308 309 311 315 314 313 311 313 315 304 301 299 297 294 292 291 290 290 287 288 287 287 287 287 287 288 287 287 287 287 287 287 286 286 287 288 289 290
308 309 306 307 308 308 308 310 310 312 311 314 312 312 306 302 301 299 298 295 292 290 289 288 287 287 287 286 286 286 286 286 286 286 286 286 285 286 285 285 286 286 287 289
307 310 307 308 308 307 308 308 311 313 315 315 314 315 319 306 305 301 297 295 291 290 289 288 286 286 286 285 285 285 285 284 284 285 285 285 284 284 284 284 285 285 286 287
307 308 308 308 309 308 308 309 312 312 313 316 315 315 307 308 305 303 297 294 291 289 287 287 286 285 285 285 285 284 283 283 282 283 283 284 283 283 283 282 283 284 285 286
308 309 309 308 308 310 311 311 312 313 314 313 312 315 306 305 303 301 297 292 290 288 286 285 285 285 284 284 284 284 283 282 281 281 281 282 281 281 281 281 281 282 284 285
308 308 308 304 311 309 312 312 312 312 310 312 312 314 303 301 300 299 297 292 289 288 287 285 285 284 284 284 283 284 283 282 281 280 280 280 280 280 280 280 280 281 282 284
308 309 308 308 307 308 309 309 310 310 311 311 311 311 309 305 303 300 296 292 290 288 287 286 285 284 284 284 284 284 283 282 281 281 280 279 279 279 279 279 279 280 281 282
309 310 309 309 309 309 309 309 308 308 309 310 308 308 308 307 307 302 297 292 291 290 289 287 286 284 284 284 284 283 283 282 282 281 281 280 279 279 278 279 279 279 279 281
303 309 304 305 306 306 307 305 305 306 307 307 306 307 306 303 299 298 296 293 292 290 289 287 285 285 284 284 283 283 282 282 281 281 281 280 280 279 278 278 278 278 279 279
306 306 307 306 305 306 306 305 304 304 304 305 307 307 304 302 300 298 295 294 292 290 288 286 284 284 283 283 283 282 282 281 281 281 280 280 280 279 279 278 278 278 278 278
306 306 306 307 306 306 306 302 305 306 306 307 307 306 303 301 297 295 294 293 291 288 286 284 283 282 282 282 282 282 281 281 281 280 280 279 279 279 278 278 278 278 278 277
304 305 308 309 307 306 305 304 306 309 308 307 308 301 296 294 294 293 292 292 290 288 285 283 282 281 281 281 281 281 280 281 280 280 279 279 278 278 278 277 277 277 277 278
302 304 307 307 306 305 304 304 304 306 308 303 302 300 296 296 303 300 291 290 287 285 283 281 280 280 281 281 281 280 280 280 280 280 279 279 278 278 277 277 277 277 277 277
304 304 306 306 306 305 305 304 304 307 307 301 299 299 296 299 298 293 290 287 285 283 281 279 279 279 279 280 280 280 280 280 280 279 279 279 279 278 278 278 277 276 276 276
303 306 306 305 306 306 303 303 307 304 300 298 298 296 296 293 291 290 287 285 283 281 279 278 278 278 279 279 279 279 279 279 279 279 278 278 277 278 278 278 278 277 276 276
305 304 306 306 306 303 303 304 301 299 300 298 297 295 294 292 290 287 285 284 282 280 278 277 278 278 278 278 279 279 278 279 278 278 277 276 276 276 277 278 278 277 277 276
302 304 306 305 305 304 302 301 299 298 298 296 295 294 292 291 289 286 285 283 281 279 278 277 278 278 278 278 278 278 278 278 278 277 277 276 275 276 275 276 276 276 276 276
303 305 305 306 304 302 302 301 299 295 294 293 293 292 291 290 288 287 285 284 281 279 278 277 277 278 277 277 277 277 277 277 277 277 276 275 275 274 274 274 275 275 275 275
304 305 306 306 305 305 304 300 295 294 293 293 292 290 290 289 287 286 285 283 281 279 277 277 276 277 276 276 276 276 276 276 277 276 275 275 274 274 274 274 273 273 273 273
Wind_Speed
3 2 3 3 3 2 2 3 10 8 12 5 7 5 11 9 6 4 4 5 7 9 11 14 17 18 19 19 20 21 23 25 27 26 29 30 30 31 29 26 26 25 24 24
1 6 2 2 4 4 4 7 8 9 12 7 7 8 5 8 3 3 3 6 7 10 11 16 19 20 20 20 22 23 24 25 26 24 27 25 26 29 29 28 25 26 26 26
5 2 2 2 1 3 4 4 5 7 5 4 6 8 6 4 6 5 4 4 6 9 11 13 18 18 18 21 22 23 23 25 25 26 26 26 26 24 24 26 28 24 26 27
4 2 2 2 4 4 5 5 8 6 3 3 3 8 2 5 7 5 1 3 5 7 8 12 16 18 18 20 19 20 22 26 27 28 28 28 27 27 30 30 31 31 29 28
2 1 2 3 4 3 6 3 6 3 2 2 5 6 1 2 7 9 4 3 6 8 8 10 14 16 17 19 20 19 24 25 26 27 27 27 26 27 30 29 31 31 31 28
4 2 3 3 2 3 4 4 1 2 1 5 5 9 1 4 2 7 4 1 4 7 9 11 13 14 17 18 19 21 24 24 26 27 27 28 30 31 30 29 30 28 31 28
4 2 2 2 1 1 3 2 2 2 1 4 3 3 11 5 5 5 6 3 4 6 8 10 14 17 18 21 22 22 23 25 27 28 29 29 30 28 27 28 28 30 29 28
1 2 3 2 2 4 3 0 1 4 4 10 12 8 3 2 7 6 5 4 4 5 7 9 12 13 17 20 21 22 24 25 27 28 30 30 31 27 27 28 29 27 27 29
4 4 2 1 1 1 1 1 1 4 7 5 4 3 3 5 5 4 4 2 3 4 5 7 12 14 16 19 22 22 23 22 25 27 29 31 32 31 28 26 25 26 29 30
2 2 3 2 1 1 3 1 6 1 4 6 4 4 5 3 8 8 7 5 2 1 4 7 11 13 14 17 19 20 19 21 23 25 26 29 30 31 29 28 30 34 34 33
3 2 1 1 1 10 5 4 2 3 4 4 5 4 4 4 7 11 7 5 4 2 3 5 8 12 11 15 20 19 21 23 26 25 25 26 29 31 31 31 31 33 35 36
1 2 3 6 5 2 3 2 2 3 2 2 3 7 5 4 7 7 8 8 5 4 2 3 7 9 13 16 17 19 21 23 25 24 22 25 29 33 33 32 33 36 36 44
1 1 3 4 2 2 1 1 2 3 1 9 8 7 4 4 7 7 10 9 6 5 3 2 6 8 12 13 17 17 20 22 23 24 25 27 30 34 36 35 36 38 37 44
3 3 6 7 6 6 12 10 7 8 6 11 14 23 13 11 11 11 10 11 9 7 4 2 5 7 9 12 14 16 18 20 21 23 25 27 29 29 31 35 37 40 43 44
3 6 6 9 8 9 13 12 15 17 18 15 23 20 21 15 12 14 12 12 11 9 7 4 5 6 9 11 13 14 17 19 20 21 24 25 25 27 31 37 34 39 43 43
1 3 1 3 10 13 16 9 17 22 20 20 21 24 19 6 5 10 13 14 11 9 7 6 6 6 9 10 11 13 16 19 20 22 23 23 26 28 31 32 34 39 41 42
3 2 1 9 5 9 15 10 13 8 9 10 11 13 4 5 7 10 13 12 12 10 9 7 7 6 7 7 8 12 14 16 19 21 23 24 25 28 29 30 33 35 36 34
5 5 3 9 4 9 5 5 9 11 14 10 14 11 3 2 4 7 8 12 12 11 10 8 8 6 6 6 8 10 12 15 18 20 22 24 25 26 27 29 30 29 29 33
13 7 4 4 8 13 13 10 3 5 12 10 10 5 5 9 7 3 7 9 11 11 12 11 9 7 7 7 8 10 13 13 16 18 19 22 23 24 26 28 28 27 26 29
7 9 6 2 6 7 3 2 2 1 13 6 2 8 11 10 5 4 12 11 14 15 14 12 10 8 8 6 7 10 12 13 14 15 15 15 19 22 23 24 24 24 26 26
4 3 12 10 8 8 6 1 3 5 4 5 2 6 11 6 1 9 14 13 17 15 14 12 10 9 7 7 7 10 11 12 11 12 14 15 15 17 18 18 22 23 24 26
7 5 5 5 6 8 5 4 5 1 2 2 0 6 9 5 10 15 14 14 17 17 14 11 11 9 7 7 8 10 11 9 10 11 13 14 16 16 16 18 17 20 21 23
4 7 4 8 5 2 6 3 1 3 4 3 3 6 10 11 13 13 13 12 16 15 13 11 12 11 8 7 7 9 8 8 9 11 13 14 14 15 16 17 17 18 20 21
4 4 5 3 6 8 7 6 5 6 6 5 5 10 12 13 15 15 13 14 14 13 13 12 12 11 10 8 8 7 7 8 9 11 11 13 15 14 15 15 16 18 19 19
5 4 4 6 9 6 9 9 6 4 4 5 8 9 11 15 15 16 13 15 14 14 12 11 11 11 10 8 7 7 7 6 9 10 11 12 12 14 14 16 17 15 18 19
6 7 5 11 8 7 5 4 9 10 8 8 11 10 12 16 16 20 15 16 15 14 13 12 11 11 10 8 8 8 7 7 8 9 10 10 11 12 11 12 12 15 15 17
Wind_Direction
6 322 292 311 218 306 337 272 264 269 268 295 260 240 186 172 158 144 69 34 22 15 354 359 0 359 356 357 355 355 352 350 350 346 340 336 328 323 321 316 312 307 302 296
20 270 247 174 182 206 222 269 281 278 272 207 271 266 174 180 169 143 70 36 15 4 3 0 360 359 358 353 355 356 355 352 349 343 333 325 316 312 309 308 310 306 301 295
212 211 326 280 162 177 242 236 257 262 323 252 287 266 192 176 153 151 88 44 23 8 356 355 356 355 354 357 355 355 354 352 348 343 335 329 320 316 315 314 310 305 297 294
243 277 165 160 282 260 289 252 245 277 297 286 334 292 199 203 195 194 132 26 14 6 1 355 353 354 356 354 352 354 357 356 351 345 339 331 324 320 318 315 310 307 301 295
275 231 250 304 247 171 254 340 298 277 223 305 243 269 86 165 229 214 196 28 15 4 356 355 355 351 352 353 352 355 1 359 350 345 339 330 327 325 322 320 314 312 308 303
256 309 229 225 293 211 296 306 223 76 144 263 286 231 246 197 219 163 165 72 22 6 358 357 357 357 356 354 354 5 4 356 354 344 341 342 339 335 330 327 324 322 313 306
313 289 273 213 12 92 39 32 333 276 211 268 17 264 260 179 172 142 149 107 44 18 7 1 358 359 355 356 359 7 3 360 354 346 347 346 342 341 338 335 331 326 320 316
240 198 188 180 103 314 352 12 299 291 291 288 293 256 242 92 121 121 120 107 52 26 11 4 352 358 357 356 360 6 5 360 356 352 351 353 351 346 348 343 339 334 329 324
173 273 300 134 194 186 32 252 136 278 273 275 246 266 182 139 163 172 165 142 59 21 11 2 358 8 357 355 0 5 4 359 4 359 356 355 357 357 353 354 354 348 350 341
161 255 336 323 161 142 333 245 282 284 275 260 248 259 251 246 228 210 202 185 129 30 16 11 3 4 1 6 8 12 7 7 8 5 3 3 2 2 3 3 6 5 4 2
125 155 267 289 253 306 304 270 213 263 229 273 301 251 180 213 204 206 201 172 159 113 19 4 0 11 3 14 17 8 14 10 16 10 6 7 13 11 10 10 7 11 13 14
52 158 241 267 287 326 215 216 185 244 227 270 263 261 178 205 194 179 173 167 175 115 40 348 11 5 19 21 16 8 17 14 14 12 11 12 15 20 10 9 10 15 21 28
152 215 302 293 86 22 87 107 109 66 201 237 257 265 178 206 201 200 169 167 159 130 109 34 33 14 25 21 18 8 18 20 15 16 19 18 18 22 19 9 15 19 22 33
159 208 234 253 265 295 294 287 258 265 263 286 248 274 265 245 233 207 184 168 156 142 146 104 52 23 28 25 18 14 20 22 20 21 22 21 19 21 22 20 18 25 27 30
221 249 235 250 261 267 264 260 257 259 255 252 271 267 272 279 241 212 171 162 156 155 162 117 78 34 31 28 23 21 25 24 26 30 29 26 22 22 28 31 24 28 30 31
49 265 246 261 261 258 268 252 242 248 258 263 270 272 280 294 113 154 161 167 163 161 150 125 101 61 46 35 29 27 29 28 28 31 31 27 29 30 28 30 29 31 31 30
199 183 299 275 274 300 285 238 239 244 238 251 267 271 197 224 209 176 164 166 162 159 149 132 111 86 63 48 41 38 35 34 36 32 30 29 29 34 30 32 33 33 30 31
205 197 222 280 300 266 254 231 234 247 270 251 260 253 219 235 133 152 163 157 155 152 142 131 124 118 87 69 58 52 48 45 43 39 35 32 30 33 34 33 36 38 36 36
211 204 244 251 253 285 287 276 242 214 289 259 259 152 120 121 109 101 157 152 152 147 139 134 133 120 106 85 72 65 56 52 47 43 40 39 39 37 38 36 33 35 36 39
166 214 220 179 271 272 280 284 186 206 295 9 294 178 160 159 200 167 165 141 134 133 132 132 135 125 109 93 87 75 59 54 48 44 42 41 44 43 42 40 36 36 37 39
159 185 219 235 255 267 277 212 176 267 313 351 330 191 174 198 348 137 142 133 132 132 130 127 124 115 105 99 97 81 68 56 51 49 46 43 42 41 37 42 40 38 39 40
210 200 197 209 231 260 155 143 213 160 294 347 344 204 190 139 135 141 137 132 134 133 131 129 120 111 106 99 93 85 72 65 61 58 53 47 44 44 44 44 43 40 40 41
238 213 204 210 229 204 196 263 295 158 198 198 198 192 167 145 149 141 133 134 138 137 133 132 126 116 101 92 89 84 72 78 70 64 57 49 48 46 45 43 39 38 37 39
251 194 222 257 239 240 245 237 233 195 229 190 176 163 159 153 151 144 142 138 136 138 136 134 129 120 107 97 85 81 76 80 78 70 61 52 51 53 50 48 43 40 34 34
248 166 237 254 262 270 251 239 210 174 162 156 143 158 157 151 153 149 144 145 144 140 139 139 134 127 116 109 94 78 73 90 81 71 60 53 53 50 53 52 46 45 45 41
210 234 238 259 255 232 268 196 159 156 171 157 142 137 151 155 151 149 147 154 151 147 143 134 130 126 122 117 104 89 76 84 93 80 63 56 53 49 50 47 48 49 49 45